Home > Weather > A Coruña > Past weeks

Flag for Spain Past Weather in A Coruña, Spain — Yesterday and Last 2 Weeks

Now
63 °F

Passing clouds.


Feels Like: 63 °F
Forecast: 63 / 69 °F
Wind: 5 mph from Northeast

Location: La Coruna

Current Time: Jul 29, 2016 at 4:20:31 AM

Latest Report: Jul 29, 2016 at 2:00 AM


Visibility: 9 mi

Pressure: 30.10 "Hg

Humidity: 91%

Dew Point: 60 °F

Location of A CoruñaLocation

Past Weather in A Coruña — Graph

°F

A Coruña Temperature Yesterday

Maximum temperature yesterday: 72 °F (at 12:00 PM)
Minimum temperature yesterday: 63 °F (at 7:00 AM)
Average temperature yesterday: 66 °F

High & Low Weather Summary for the Past Weeks

 TemperatureHumidityPressure
High86 °F (Jul 16, 3:00 PM)98% (Jul 26, 5:00 AM)30.33 "Hg (Jul 26, 5:00 AM)
Low59 °F (Jul 14, 6:00 AM)39% (Jul 15, 1:00 PM)29.90 "Hg (Jul 19, 4:00 AM)
Average68 °F77%30.14 "Hg
* Reported Jul 14 2:00 AM — Jul 29 2:00 AM, A Coruña, Weather by CustomWeather, © 2016

Note: Actual official high and low records may vary slightly from our data, if they occured in-between our weather recording intervals... More about our weather records

Advertising

A Coruña Weather History for the Previous 24 Hours

Scroll right to see more
 ConditionsComfort  
Time TempWeatherWind HumidityBarometerVisibility
2:00 AM
Fri, Jul 29
63 °FPassing clouds.5 mph91%30.10 "Hg9 mi
8:00 PM
Thu, Jul 28
65 °FMild.16 mph88%30.09 "Hg11 mi
7:00 PM66 °FMild.17 mph85%30.09 "Hg12 mi
6:00 PM67 °FMild.17 mph83%30.10 "Hg12 mi
3:00 PM68 °FMild.20 mph83%30.14 "Hg12 mi
2:00 PM68 °FPassing clouds.14 mph78%30.15 "Hg16 mi
1:00 PM68 °FMild.12 mph78%30.16 "Hg12 mi
12:00 PM72 °FMild.12 mph68%30.16 "Hg12 mi
11:00 AM69 °FOvercast.13 mph75%30.17 "Hg16 mi
10:00 AM67 °FMild.12 mph79%30.17 "Hg12 mi
9:00 AM65 °FMild.7 mph84%30.17 "Hg12 mi
8:00 AM63 °FMild.5 mph90%30.17 "Hg9 mi
7:00 AM63 °FMild.3 mph89%30.17 "Hg9 mi
6:00 AM64 °FMild.7 mph86%30.17 "Hg9 mi
5:00 AM65 °FOvercast.8 mph85%30.18 "Hg9 mi
4:00 AM66 °FMild.7 mph83%30.19 "Hg12 mi
Weather by CustomWeather, © 2016

See weather overviewHow to use our weather pages